Location: Montbazon
(47.2835°N, 0.6999°E)
Time: 18:27:45
(UTC+00:00)

Cosmos 2173 Rocket - Pass Details

Date: 08 November 2025
Orbit: 943 x 1000 km, 83.0° (Epoch: 10 December)

Event Time Altitude Azimuth Distance (km) Brightness Sun altitude
Rises 05:14:34 0° 345° (NNW) 3,630 6.8 -16.6°
Reaches altitude 10° 05:17:12 10° 338° (NNW) 2,676 6.0 -16.1°
Maximum altitude 05:22:48 40° 271° (W) 1,365 4.3 -15.2°
Drops below altitude 10° 05:28:22 10° 204° (SSW) 2,656 6.1 -14.2°
Sets 05:30:59 0° 197° (SSW) 3,599 6.9 -13.8°
